Regional Weather Roundup
Issued by NWS

Home | Current Version | Previous Version | Text Only | Print | Product List | Glossary Off
Versions: 1 2 3 4 5 6 7 8 9 10 11 12 13 14 15 16 17 18 19 20 21 22 23 24 25 26 27 28 29 30 31 32 33 34 35 36 37 38 39 40 41 42 43 44 45 46 47 48 49 50

653
ASUS43 KDMX 300408
RWRIA

WEATHER ROUNDUP FOR IOWA
NATIONAL WEATHER SERVICE DES MOINES IA
1100 PM CDT FRI JUL 29 2016

NOTE: "FAIR" INDICATES FEW OR NO CLOUDS BELOW 12,000 FEET WITH NO
SIGNIFICANT WEATHER AND/OR OBSTRUCTIONS TO VISIBILITY.

* - THESE STATIONS ARE NOT NWS STATIONS...THUS NOT UNDER NWS
QUALITY CONTROL.  THEY ALSO DO NOT REPORT WEATHER SUCH
AS PRECIPITATION OR FOG.

IAZ001>003-012>014-020>022-031>034-043>046-300500-
   NORTHWEST IOWA

CITY           SKY/WX    TMP DP  RH WIND       PRES   REMARKS
CARROLL *      CLOUDY    68  66  94 CALM      30.04S
CHEROKEE *     CLEAR     63  62  99 CALM      30.05S
DENISON *      PTCLDY    63  61  94 CALM      30.03S
LE MARS *      CLEAR     64  61  88 CALM      30.06R
SHELDON *      CLEAR     61  59  94 NE6       30.04F
SIOUX CITY     PTCLDY    68  62  81 SE3       30.04R
SPENCER        CLEAR     58  55  90 CALM      30.06R
STORM LAKE *   CLEAR     64  61  88 CALM      30.06S
$$

IAZ055>058-069>071-079>083-090>094-300500-
   SOUTHWEST IOWA

CITY           SKY/WX    TMP DP  RH WIND       PRES   REMARKS
ATLANTIC *     CLEAR     64  63  94 NW3       30.04R
CLARINDA *       N/A     64  63  94 MISG      30.05R
COUNCIL BLFS *   N/A     66  63  88 NE6       30.05R
CRESTON *      CLEAR     64  63  94 N5        30.04S
HARLAN  *      CLEAR     63  61  94 CALM      30.08R
LAMONI         MOCLDY    67  64  90 N6        30.00F
RED OAK *      CLEAR     64  63  94 N5        30.03S
SHENANDOAH *     N/A     66  64  94 NE3       30.03S
$$

IAZ047>049-059>061-072>074-084-300500-
   CENTRAL IOWA

CITY           SKY/WX    TMP DP  RH WIND       PRES   REMARKS
AMES           MOCLDY    67  66  97 N5        30.01S
ANKENY *         N/A    N/A N/A N/A MISG        N/A
BOONE *        CLOUDY    68  64  88 CALM      30.02S
CHARITON *       N/A    N/A N/A N/A MISG        N/A
DES MOINES     MOCLDY    69  64  84 NW6       30.00S
GRINNELL*      CLOUDY    67  64  89 N5        30.01R
KNOXVILLE *    CLEAR     66  63  88 W6        29.98F
MARSHALLTOWN   PTCLDY    65  64  97 N3        30.00R
NEWTON *       MOCLDY    68  66  94 N6        29.99F
PELLA *        CLEAR     66  64  94 CALM      30.00F
PERRY *        CLOUDY    67  66  96 NW3       30.02F
$$

IAZ004>006-015-016-023>025-035-036-300500-
   NORTH CENTRAL IOWA

CITY           SKY/WX    TMP DP  RH WIND       PRES   REMARKS
ALGONA *       CLOUDY    70  64  83 CALM      30.04F
ESTHERVILLE    CLEAR     59  57  93 N5        30.06R
FORT DODGE *   CLOUDY    66  63  88 CALM      30.04S
MASON CITY     CLOUDY    67  64  90 N5        30.04S
FOREST CITY *  CLOUDY    66  63  88 CALM      30.04S
IOWA FALLS *   CLOUDY    67  64  89 N3        30.03S
$$

IAZ007>011-017>019-026>030-037>042-050>054-066-300500-
   NORTHEAST IOWA

CITY           SKY/WX    TMP DP  RH WIND       PRES   REMARKS
CEDAR RAPIDS   CLOUDY    68  68 100 N8        29.97R
CHARLES CITY * PTCLDY    66  66 100 E5        30.03R
CLINTON *      CLOUDY    70  66  87 E9        29.97S
DECORAH *      CLOUDY    66  66 100 CALM      30.01S
DUBUQUE        CLOUDY    68  66  93 NE6       30.00S
MONTICELLO *   CLOUDY    68  66  94 CALM      29.98R
OELWEIN *      CLOUDY    66  64  94 NW5       30.01S
WATERLOO       MOCLDY    66  64  93 N5        29.99F
$$

IAZ064-065-067-068-078-300500-
   EAST CENTRAL IOWA

CITY           SKY/WX    TMP DP  RH WIND       PRES   REMARKS
DAVENPORT      CLOUDY    68  66  93 NE7       29.97R
IOWA CITY      MOCLDY    70  66  87 N9        29.97S
MT. PLEASANT * CLEAR     67  67 100 NW3       29.96S
MUSCATINE *    MOCLDY    70  66  88 N7        29.96R
QUAD CITIES    CLOUDY    71  66  84 E7        29.95S
$$

IAZ062-063-075>077-085>089-095>099-300500-
   SOUTHEAST IOWA

CITY           SKY/WX    TMP DP  RH WIND       PRES   REMARKS
BURLINGTON     CLEAR     68  67  96 N6        29.94S
FAIRFIELD *    CLOUDY    68  66  94 NW5       29.96F
KEOKUK *       CLEAR     68  66  94 NW5       29.95S
CENTERVILLE *  MOCLDY    66  64  94 CALM      30.00F
OTTUMWA        PTCLDY    65  63  93 NW7       29.98S
WASHINGTON *   MOCLDY    68  66  94 N5        29.97S
$$

ABBREVIATIONS USED IN REMARKS
   TC - TEMPERATURES IN CELSIUS
  WCI - WIND CHILL INDEX
   HX - HEAT INDEX
  VSB - VISIBILITY
$$





USA.gov is the U.S. government's official web portal to all federal, state and local government web resources and services.